Volver al catálogo

STARLINK-36923

ActivoComunicacionesSSO
NORAD 68016·PAYLOAD·🇺🇸 United States

Lanzado Mar 1, 2026 desde Vandenberg Space Force Base

Loading…

Próximos Pases (próximas 24 horas)

TLE

ActualizadoSource: CelesTrak SupGP

Época: Sep 15, 2026, 04:03 UTC

1 68016C 26040B   26258.16923611  .00077271  00000+0  23986-2 0  2586
2 68016  97.2855 205.5160 0001602  90.2039  13.8173 15.33400209    11

Sigue STARLINK-36923 en tiempo real con AllMySat

Download on the App Store